This is the latest recevied weather packets stored in our database for station/object K3JSE-2. If no packets are shown the sender has not sent any weather packets the latest 10 day(s).
| Time | Temp. | Humidity | Pressure | Rain* | Wind** | Luminosity | Snow |
|---|---|---|---|---|---|---|---|
| 1777467411 | 11.67° C | 57% | 1015.6 hPa | 0 mm | - | - | - |
| 1777467142 | 11.67° C | 56% | 1015.6 hPa | 0 mm | - | - | - |
| 1777466863 | 11.67° C | 57% | 1015.6 hPa | 0 mm | - | - | - |
| 1777466578 | 12.22° C | 57% | 1015.5 hPa | 0 mm | - | - | - |
| 1777466281 | 12.22° C | 58% | 1015.3 hPa | 0 mm | - | - | - |
| 1777465993 | 11.67° C | 59% | 1015.2 hPa | 0 mm | - | - | - |
| 1777465743 | 11.67° C | 58% | 1015.2 hPa | 0 mm | - | - | - |
| 1777465481 | 11.67° C | 58% | 1015.2 hPa | 0 mm | - | - | - |
| 1777465208 | 11.11° C | 59% | 1015.3 hPa | 0 mm | - | - | - |
| 1777464918 | 11.11° C | 59% | 1015.5 hPa | 0 mm | - | - | - |
| 1777464673 | 11.11° C | 62% | 1015.5 hPa | 0 mm | - | - | - |
| 1777464408 | 11.11° C | 60% | 1015.5 hPa | 0 mm | - | - | - |
| 1777464148 | 10.56° C | 62% | 1015.5 hPa | 0 mm | - | - | - |
| 1777463893 | 10.56° C | 61% | 1015.5 hPa | 0 mm | - | - | - |
| 1777463641 | 10.56° C | 63% | 1015.5 hPa | 0 mm | - | - | - |
| 1777463381 | 10.56° C | 63% | 1015.7 hPa | 0 mm | - | - | - |
| 1777463098 | 10.56° C | 62% | 1015.7 hPa | 0 mm | - | - | - |
| 1777462821 | 10.56° C | 65% | 1015.7 hPa | 0 mm | - | - | - |
| 1777462548 | 10.56° C | 63% | 1015.7 hPa | 0 mm | - | - | - |
| 1777462248 | 10° C | 63% | 1015.7 hPa | 0 mm | - | - | - |
| 1777461951 | 10° C | 65% | 1015.8 hPa | 0 mm | - | - | - |
| 1777461693 | 10° C | 66% | 1015.9 hPa | 0 mm | - | - | - |
| 1777461442 | 10° C | 65% | 1016.1 hPa | 0 mm | - | - | - |
| 1777461168 | 10° C | 64% | 1016.1 hPa | 0 mm | - | - | - |
| 1777460906 | 10° C | 65% | 1016.1 hPa | 0 mm | - | - | - |
* Rain latest hour (hover to see other rain measurements)
** Current wind speed in m/s (hover to see current wind gust speed)